sat.trackr.live / text

‹ back to catalog

STARLINK-6196

NORAD 56487 · 2023-064AR

PAYLOAD ACTIVE UNKNOWN

§ Identity

Operator
Country
US
Launch date
2023-05-10
Launch site
AFWTR
Launch vehicle
Mass (kg)
RCS (m²)

Purposes: comms

External: N2YO · Heavens-Above · Gunter

§ Orbital elements

Epoch: 2026-09-20T13:04:01.367328Z

Period
96.11 min
Inclination
69.9993°
Eccentricity
0.0003382
Mean motion
14.98330837 rev/d
Perigee alt
569.7 km
Apogee alt
574.4 km
Semi-major
6,950.2 km
B*
4.2413e-5
RAAN
333.0121°
Arg perigee
268.9809°
Mean anomaly
91.0963°
Rev number
18,542

§ Raw data

STARLINK-61961 56487U 23064AR  26263.54446027  .00000413  00000+0  42413-4 0  99912 56487  69.9993 333.0121 0003382 268.9809  91.0963 14.98330837185422

JSON: /api/v1/satellites/56487 · /tle

For live sub-satellite position, see the globe view (requires WebGL).

§ Visibility from observer

Set your observer location to see the next 7 days of passes ≥ 10°. The values pass through the URL so the page stays shareable.

No JS? Fill the form by hand. The geolocation button needs JavaScript.